Weather History for Reno, NV

Change the Weather History Date:

Friday, March 21, 2014

  Actual Average Record
Temperature  
Mean Temperature 52 °F 46 °F  
Max Temperature 66 °F 59 °F 80 °F (2004)
Min Temperature 37 °F 34 °F 1 °F (1952)
Degree Days  
Heating Degree Days 13 18  
Month to date heating degree days 342 420  
Since 1 July heating degree days 3926 4058  
Cooling Degree Days 0 0  
Month to date cooling degree days 0 0  
Year to date cooling degree days 0 0  
Growing Degree Days 2 (Base 50)    
Moisture  
Dew Point 20 °F    
Average Humidity 38    
Maximum Humidity 59    
Minimum Humidity 16    
Precipitation  
Precipitation 0.00 in 0.02 in 0.59 in (1975)
Month to date precipitation 0.08 0.58  
Year to date precipitation 1.15 2.63  
Snow  
Snow 0.00 in 0.10 in 5.00 in (1975)
Month to date snowfall 0.0 1.6  
Since 1 July snowfall 6.2 20.6  
Snow Depth 0.00 in    
Sea Level Pressure  
Sea Level Pressure 29.93 in    
Wind  
Wind Speed 5 mph (WNW)    
Max Wind Speed 20 mph    
Max Gust Speed 33 mph    
Visibility 10 miles    
Events      
T = Trace of Precipitation, MM = Missing Value Source: NWS Daily Summary

Daily Weather History Graph

Daily Weather History Graph

Search for Another Location

Airport:

Trip Planner

Search our weather history database for the weather conditions in past years. The results will help you decide how hot, cold, wet, or windy it might be!

Date:

Astronomy

Mar. 21, 2014 Rise Set
Actual Time 7:00 AM PDT 7:12 PM PDT
Civil Twilight 6:33 AM PDT 7:39 PM PDT
Nautical Twilight 6:02 AM PDT 8:10 PM PDT
Astronomical Twilight 5:30 AM PDT 8:42 PM PDT
Moon No Moon Rise 9:57 AM PDT (3/21)
Length of Visible Light 13h 05m
Length of Day
12h 11m
Waning Gibbous, 74% of the Moon is Illuminated
Mar 21
Waning Gibbous
Mar 23
Last Quarter
Mar 30
New
Apr 7
First Quarter
Apr 15
Full

Hourly Weather History & Observations

Time (PDT) Temp. Windchill Dew Point Humidity Pressure Visibility Wind Dir Wind Speed Gust Speed Precip Events Conditions
12:55 AM 43.0 °F 40.3 °F 19.0 °F 38% 29.96 in 10.0 mi Variable 4.6 mph - N/A   Clear
1:55 AM 43.0 °F - 19.9 °F 40% 29.96 in 10.0 mi Calm Calm - N/A   Partly Cloudy
2:55 AM 42.1 °F - 19.9 °F 41% 29.95 in 10.0 mi Calm Calm - N/A   Partly Cloudy
3:55 AM 39.0 °F 36.8 °F 19.9 °F 46% 29.95 in 10.0 mi SW 3.5 mph - N/A   Clear
4:55 AM 39.0 °F 36.8 °F 21.9 °F 50% 29.94 in 10.0 mi WNW 3.5 mph - N/A   Partly Cloudy
5:55 AM 37.0 °F - 21.9 °F 54% 29.95 in 10.0 mi Calm Calm - N/A   Partly Cloudy
6:55 AM 37.0 °F 33.3 °F 24.1 °F 59% 29.98 in 10.0 mi WNW 4.6 mph - N/A   Scattered Clouds
7:55 AM 39.0 °F - 24.1 °F 55% 29.99 in 10.0 mi Calm Calm - N/A   Mostly Cloudy
8:55 AM 42.1 °F - 23.0 °F 47% 30.00 in 10.0 mi Calm Calm - N/A   Mostly Cloudy
9:55 AM 45.0 °F - 19.9 °F 37% 29.99 in 10.0 mi Calm Calm - N/A   Overcast
10:55 AM 50.0 °F - 17.1 °F 27% 29.98 in 10.0 mi Calm Calm - N/A   Overcast
11:55 AM 54.0 °F - 16.0 °F 22% 29.95 in 10.0 mi NE 3.5 mph - N/A   Mostly Cloudy
12:55 PM 57.0 °F - 16.0 °F 20% 29.94 in 10.0 mi SSW 3.5 mph - N/A   Overcast
1:55 PM 59.0 °F - 16.0 °F 19% 29.90 in 10.0 mi Variable 3.5 mph - N/A   Mostly Cloudy
2:55 PM 61.0 °F - 18.0 °F 19% 29.87 in 10.0 mi Calm Calm - N/A   Mostly Cloudy
3:55 PM 63.0 °F - 19.0 °F 18% 29.86 in 10.0 mi Variable 3.5 mph - N/A   Mostly Cloudy
4:55 PM 64.9 °F - 19.9 °F 18% 29.84 in 10.0 mi Variable 5.8 mph - N/A   Scattered Clouds
5:30 PM 64.9 °F - 21.0 °F 19% 29.89 in 10.0 mi West 15.0 mph 23.0 mph N/A   Scattered Clouds
5:55 PM 64.9 °F - 17.1 °F 16% 29.83 in 10.0 mi West 12.7 mph 18.4 mph N/A   Scattered Clouds
6:55 PM 61.0 °F - 21.9 °F 22% 29.86 in 10.0 mi WNW 16.1 mph - N/A   Partly Cloudy
7:55 PM 57.0 °F - 24.1 °F 28% 29.89 in 10.0 mi WNW 13.8 mph - N/A   Partly Cloudy
8:55 PM 55.0 °F - 25.0 °F 31% 29.91 in 10.0 mi WNW 11.5 mph - N/A   Partly Cloudy
9:55 PM 52.0 °F - 25.0 °F 35% 29.94 in 10.0 mi NNE 6.9 mph - N/A   Partly Cloudy
10:55 PM 52.0 °F - 24.1 °F 34% 29.94 in 10.0 mi NW 5.8 mph - N/A   Partly Cloudy
11:55 PM 52.0 °F - 15.1 °F 23% 29.95 in 10.0 mi NW 10.4 mph 19.6 mph N/A   Clear